Tracking 18840 objects as of 19-November-2017
HD Live streaming from Space Station
objects crossing your sky now

GSAT0203

Track GSAT0203 now!
GSAT0203 is classified as:


NORAD ID: 40544
Int'l Code: 2015-017A
Perigee: 23,218.6 km
Apogee: 23,239.7 km
Inclination: 55.7 °
Period: 844.7 minutes
Semi major axis: 29600 km
RCS: Unknown
Launch date: March 27, 2015
Source: European Space Agency (ESA)
Launch site: FRENCH GUIANA (FRGUI)

GSAT0203 is a member of European's Galileo navigation satellite constellation.
aabbcc
Your satellite tracking list
Your tracking list is empty




NASA's NSSDC Master Catalog

Two Line Element Set (TLE):
1 40544U 15017A   17321.67873596 -.00000066  00000-0  00000+0 0  9998
2 40544  55.7351  67.6885 0003571 221.8019 138.1501  1.70475626 16435
Source of the keplerian elements: AFSPC